sat.trackr.live / text

‹ back to catalog

STARLINK-32940

NORAD 63568 · 2025-075W

PAYLOAD ACTIVE UNKNOWN

§ Identity

Operator
Country
US
Launch date
2025-04-13
Launch site
AFETR
Launch vehicle
Mass (kg)
RCS (m²)

Purposes: comms

External: N2YO · Heavens-Above · Gunter

§ Orbital elements

Epoch: 2026-09-20T23:16:25.163616Z

Period
94.27 min
Inclination
42.9984°
Eccentricity
0.0001268
Mean motion
15.27582293 rev/d
Perigee alt
482.2 km
Apogee alt
483.9 km
Semi-major
6,861.2 km
B*
1.6756e-4
RAAN
247.7069°
Arg perigee
276.0110°
Mean anomaly
84.0597°
Rev number
8,179

§ Raw data

STARLINK-329401 63568U 25075W   26263.96973569  .00004352  00000+0  16756-3 0  99912 63568  42.9984 247.7069 0001268 276.0110  84.0597 15.27582293 81797

JSON: /api/v1/satellites/63568 · /tle

For live sub-satellite position, see the globe view (requires WebGL).

§ Visibility from observer

Set your observer location to see the next 7 days of passes ≥ 10°. The values pass through the URL so the page stays shareable.

No JS? Fill the form by hand. The geolocation button needs JavaScript.